Location: Kalwaria Zebrzydowska
(49.8686°N, 19.6647°E)
Time: 07:13:04
(UTC+01:00)

ISS - Pass Details

Date: 24 January 2019
Orbit: 403 x 411 km, 51.6° (Epoch: 17 February)

Event Time Altitude Azimuth Distance (km) Brightness Sun altitude
Rises 19:19:20 0° 247° (WSW) 2,332 1.0 -28.3°
Reaches altitude 10° 19:21:25 10° 246° (WSW) 1,475 -0.3 -28.6°
Enters shadow 19:22:03 15° 245° (WSW) 1,218 -0.8 -28.7°
